Regional Weather Roundup
Issued by NWS Jackson, KY

Home | Current Version | Previous Version | Text Only | Print | Product List | Glossary Off
Versions: 1 2 3 4 5 6 7 8 9 10 11 12 13 14 15 16 17 18 19 20 21 22 23 24 25 26 27 28 29 30 31 32 33 34 35 36 37 38 39 40 41 42 43 44 45 46 47 48 49 50

000
ASUS43 KJKL 201310
RWRJKL

EAST KENTUCKY HOURLY WEATHER ROUNDUP
NATIONAL WEATHER SERVICE JACKSON KY
900 AM EDT SUN APR 20 2014

NOTE: "FAIR" INDICATES FEW OR NO CLOUDS BELOW 12,000 FEET WITH
NO SIGNIFICANT WEATHER AND/OR OBSTRUCTIONS TO VISIBILITY.

* THESE REPORTS ARE NOT UNDER NWS QUALITY CONTROL AND MAY NOT
  REPORT WEATHER SUCH AS PRECIPITATION AND FOG.

KYZ079-080-083-085-087-088-110-112-115-119-120-201400
...EASTERN KENTUCKY...

CITY           SKY/WX    TMP DP  RH WIND       PRES   REMARKS
JACKSON        MOSUNNY   56  34  43 VRB3      30.26S
LONDON         SUNNY     54  41  61 CALM      30.25S
SOMERSET*      SUNNY     52  39  62 CALM      30.27R
MONTICELLO*    SUNNY     56  44  64 CALM      30.26R
WILLIAMSBURG*  SUNNY     54  45  71 CALM      30.26S
MIDDLESBORO*   SUNNY     50  43  76 CALM      30.28S
HARLAN APT*    SUNNY     52  41  66 NE3       30.27S
BLACK MTN*       N/A     50  32  50 E3          N/A
PIKEVILLE APT* SUNNY     57  37  47 SE6       30.27S
BIG SANDY*     MOSUNNY   58  42  54 E3        30.28R
MOREHEAD APT*  SUNNY     59  34  38 E5        30.28S
$$

KYZ035-036-041-042-044-050-067-078-099-201400
...CENTRAL KENTUCKY...

CITY           SKY/WX    TMP DP  RH WIND       PRES   REMARKS
MT STERLING*   SUNNY     55  36  47 E5        30.27S
FLEMING/MASON* SUNNY     54  36  50 E7        30.28S
DANVILLE*      SUNNY     52  41  66 CALM      30.26S
LEXINGTON      SUNNY     58  37  45 E6        30.25S
FRANKFORT      SUNNY     52  37  56 E3        30.25S
$$

KYZ091>093-OHZ055-061-077-WVZ005-015-034-035-042-201400
...SOUTHERN OHIO/WEST VIRGINIA...

CITY           SKY/WX    TMP DP  RH WIND       PRES   REMARKS
COVINGTON      MOSUNNY   52  34  50 E5        30.26F
COLUMBUS       PTSUNNY   53  30  41 E6        30.29R
DAYTON         PTSUNNY   51  34  52 E6        30.29S
WILMINGTON     MOSUNNY   49  35  58 E6        30.27F
HUNTINGTON     SUNNY     52  38  58 NE3       30.28R
CHARLESTON     MOSUNNY   53  40  61 CALM      30.29R
PINEVILLE*     SUNNY     53  44  71 MISG      30.35R
BECKLEY        SUNNY     49  30  48 SE7       30.30R
BLUEFIELD      SUNNY     53  29  39 E9G17     30.30S
$$

VAZ002-007-008-TNZ017-027-036-066-071-201400
...SOUTHWEST VIRGINIA/EAST TENNESSEE...

CITY           SKY/WX    TMP DP  RH WIND       PRES   REMARKS
WISE*          SUNNY     54  32  43 CALM      30.29F
ABINGDON*      SUNNY     55  35  48 E10       30.30R
BRISTOL        MOSUNNY   54  40  59 E5        30.29R
KNOXVILLE      SUNNY     51  49  92 NE3       30.25S FOG
OAK RIDGE      SUNNY     53  46  77 CALM      30.27S
CROSSVILLE     SUNNY     55  41  59 CALM      30.26R
NASHVILLE      MOSUNNY   55  46  71 CALM      30.24R
$$

...KEY TO REMARKS...
VSB - VISIBILITY IN MILES
WCI - WIND CHILL INDEX
HX  - HEAT INDEX

$$



USA.gov is the U.S. government's official web portal to all federal, state and local government web resources and services.